Location: Baak
(52.0776°N, 6.2265°E)
Time: 06:43:55
(UTC+00:00)

Envisat - Visible Passes

Search period start: 17 February 2026 00:00
Search period end: 27 February 2026 00:00
Orbit: 761 x 763 km, 98.4° (Epoch: 16 February)

Date Brightness Start Highest point End Pass type
(mag) Time Alt. Az. Time Alt. Az. Time Alt. Az.
17 Feb 5.3 02:37:35 10° NNE 02:38:48 18° NNE 02:38:48 18° NNE visible
17 Feb 5.0 04:17:42 10° NNW 04:18:56 14° NNW 04:18:56 14° NNW visible
18 Feb 5.7 01:59:53 10° NNE 02:00:40 14° NNE 02:00:40 14° NNE visible
18 Feb 4.9 03:39:10 10° N 03:40:48 18° NNW 03:40:48 18° NNW visible
19 Feb 5.0 03:01:02 10° N 03:02:40 21° N 03:02:40 21° N visible
19 Feb 5.1 04:41:58 10° NNW 04:42:48 11° NW 04:42:48 11° NW visible
20 Feb 5.3 02:23:09 10° NNE 02:24:33 19° NNE 02:24:33 19° NNE visible
20 Feb 4.9 04:02:55 10° N 04:04:41 17° NNW 04:04:41 17° NNW visible
21 Feb 5.7 01:45:34 10° NNE 01:46:24 14° NNE 01:46:24 14° NNE visible
21 Feb 4.8 03:24:34 10° N 03:26:33 22° N 03:26:33 22° N visible
22 Feb 4.9 02:46:32 10° NNE 02:48:25 23° N 02:48:25 23° N visible
22 Feb 4.9 04:26:53 10° NNW 04:28:33 14° NW 04:28:33 14° NW visible
23 Feb 5.3 02:08:45 10° NNE 02:10:18 20° NNE 02:10:18 20° NNE visible
23 Feb 4.7 03:48:14 10° N 03:50:26 21° NNW 03:50:26 21° NNW visible
24 Feb 5.7 01:31:18 10° NNE 01:32:10 14° NE 01:32:10 14° NE visible
24 Feb 4.6 03:10:01 10° N 03:12:18 26° N 03:12:18 26° N visible
24 Feb 5.1 04:51:39 10° NW 04:52:26 11° NW 04:52:26 11° NW visible
25 Feb 4.8 02:32:04 10° NNE 02:34:10 25° NNE 02:34:10 25° NNE visible
25 Feb 4.7 04:12:02 10° NNW 04:14:18 17° NW 04:14:18 17° NW visible
26 Feb 5.3 01:54:23 10° NNE 01:56:03 20° NE 01:56:03 20° NE visible
26 Feb 4.5 03:33:35 10° N 03:36:11 25° NNW 03:36:11 25° NNW visible
